Погода в Зарбдаре

Узбекистан     40°05′15″N   68°09′51″E
темп.,
°C
ветер,
м/с
пор.,
м/с
влажн.,
%
обл.,
%
осадки,
мм/ч
давл.,
гПа
погр.,
м
23 июня, ср
ср2323:00+22ю22240 0.0 101211
02:00+20з11270 0.0 101211
05:00+19з22275 0.0 101312
08:00+23сз44230 0.0 1014442
11:00+28ссз43190 0.0 10131319
14:00+31с22150 0.0 10111706
17:00+32с32130 0.0 10101958
20:00+25с22200 0.0 101011
24 июня, чт
чт2423:00+24юз33220 0.0 101014
02:00+22зюз33250 0.0 101032
05:00+20зюз33270 0.0 101019
08:00+26зсз33210 0.0 1010442
11:00+30ссз43160 0.0 10101477
14:00+33ссз44130 0.0 10082019
17:00+34с44130 0.0 10072744
20:00+26св11210 0.0 100811
25 июня, пт
пт2523:00+25ююз22230 0.0 100717
02:00+23зюз44310 0.0 100838
05:00+21з22410 0.0 100918
08:00+25сз44380 0.0 1010556
11:00+29ссз43300 0.0 10091596
14:00+33с53230 0.0 10072412
17:00+32с64190 0.0 10062447
20:00+25ссв22170 0.0 100714
26 июня, сб
сб2623:00+23ююз22200 0.0 100813
02:00+21з22230 0.0 100711
05:00+18зюз22260 0.0 100815
08:00+23зсз33220 0.0 1009394
11:00+29ссз43170 0.0 10071146
14:00+32с43150 0.0 10061723
17:00+33с32140 0.0 10051853
20:00+27с112027 0.0 100511
27 июня, вс
вс2723:00+25зюз332138 0.0 100629
02:00+22зюз46253 0.0 100782
05:00+21зюз33250 0.0 100716
08:00+26сз33180 0.0 1008378
11:00+31ссз32150 0.0 1007945
14:00+35с32130 0.0 10061533
17:00+36ссв32130 0.0 10051918
20:00+30св3320100 0.0 100527